www.pogodaiklimat.ru

Погода и климат >> Архив погоды >> Россия >> Ханты-Мансийский АО >> Вонъеган


ПОГОДА в Вонъегане

  • Прогноз погоды в Вонъегане
  • Монитор погоды в Вонъегане

АРХИВ ПОГОДЫ в Вонъегане

Время (UTC), дата Ветер
(напр.,м/с)
 
Видим.   Явления Облачность Т
(С)
Тd
(С)
f
(%)
Тe
(С)
Тes
(С)
Комфортность P
(гПа)
Po
(гПа)
Тmin
(С)
Tmax
(С)
R
(мм)
R24
(мм)
S
(см)
15 9.09 СЗ 1 20 км 4/0
[Ci sp]
+4.7 +3.1 89 +3 +3 1028.7 1014.8 +11.7
18 9.09 штиль 0 20 км 3/0
[Ci sp]
+0.5 +0.2 98 -1 -1 1028.3 1014.2
21 9.09 штиль 0 20 км 3/0
[Ci sp]
-1.3 -1.4 99 -3 -3 1027.2 1013.0
00 10.09 ЮВ 1 20 км 8/0
[Ac trans Ci sp]
-1.4 -1.6 99 -4 -4 1025.7 1011.5
03 10.09 ЮЗ 3 20 км 10/5 600 м
[Cb cap Ac trans Ci sp]
+4.6 +1.9 83 +1 +1 1022.6 1008.8 -2.3
06 10.09 З 3 н/о н/о +7.8 +3.3 73 +5 +5 1020.0 1006.4
09 10.09 З 2 20 км {ливн. осадки} 10/6 600 м
[Cb cap Ac As]
+10.5 +6.3 75 +9 +10 1017.2 1003.7
12 10.09 СЗ 3 н/о н/о +13.7 +8.0 68 +13 +13 1017.5 1004.2
15 10.09 СЗ 2 20 км {ливн. осадки} 6/6 600 м
[Cb cap]
+11.1 +8.7 85 +10 +10 1019.5 1006.0 +13.8 0.5
18 10.09 С 2 20 км {ливн. осадки} 8/5 600 м
[Cb cap Ci sp]
+10.4 +6.9 79 +9 +9 1022.3 1008.8
21 10.09 СЗ 1 20 км 4/0
[Ci sp]
+6.0 +5.1 94 +5 +5 1025.2 1011.4
00 11.09 СЗ 1 20 км 8/3 600 м
[Sc Ci sp]
+3.9 +3.4 97 +2 +2 1027.5 1013.6
03 11.09 З 1 20 км 10/3 600 м
[Sc Ac trans Ci sp]
+4.7 +4.2 97 +3 +4 1028.8 1014.9 +2.5
06 11.09 ЮЗ 2 н/о н/о +10.3 +6.1 75 +9 +9 1027.9 1014.3
09 11.09 ЮЗ 3 20 км 10/9 600 м
[Cb cap Ci sp]
+13.6 +5.5 58 +13 +13 1025.9 1012.5
12 11.09 З 2 н/о н/о +14.1 +6.5 60 +14 +14 1024.3 1010.9
15 11.09 ЮЗ 1 20 км 10/5 600 м
[Cb cap Ac trans Ci sp]
+11.1 +7.1 76 +11 +11 1022.7 1009.2 +14.4
18 11.09 ЮЗ 2 20 км 10/4 600 м
[Cb cap Ac trans Ci sp]
+10.6 +7.7 82 +9 +9 1020.5 1007.0
21 11.09 ЮЗ 1 20 км в посл. час ливневой дождь 10/8 600 м
[Cb cap Ci sp]
+10.7 +9.9 95 +10 +10 1018.2 1004.8
00 12.09 З 1 20 км {ливн. осадки} 10/9 600 м
[Cb cap Ci sp]
+11.4 +10.8 96 +11 +11 1017.2 1003.8
03 12.09 С 3 10 км слаб. ливневой дождь 10/10 600 м
[Cb cap]
+11.7 +11.2 97 +10 +10 1017.9 1004.5 +9.9 2
06 12.09 С 2 н/о н/о +12.8 +11.1 89 +12 +12 1019.6 1006.2
09 12.09 С 3 20 км 10/10 600 м
[Cb cap]
+10.5 +8.6 88 +8 +8 1021.6 1008.1
12 12.09 СЗ 1 н/о н/о +11.1 +7.6 79 +11 +11 1022.1 1008.6
15 12.09 ЮВ 1 20 км 6/3 600 м
[Sc Ci sp]
+6.1 +5.6 97 +5 +5 1021.7 1008.0 +13.1 0.5
18 12.09 Ю 2 20 км 10/8 600 м
[Sc Ci sp]
+7.4 +6.7 95 +5 +5 1020.3 1006.7
21 12.09 Ю 2 20 км 10/10 600 м
[Cb cap]
+7.4 +6.5 94 +5 +5 1018.4 1004.8
00 13.09 Ю 2 10 км слаб. ливневой дождь 10/10 600 м
[Cb cap]
+8.7 +7.9 95 +7 +7 1015.7 1002.2
03 13.09 Ю 3 20 км в посл. час ливневой дождь 9/8 600 м
[Cb cap Ac trans]
+10.2 +9.8 97 +8 +8 1013.5 1000.1 +5.2 5
06 13.09 ЮЗ 3 н/о н/о +13.3 +11.6 89 +12 +12 1011.8 998.6
09 13.09 З 1 20 км 10/8 600 м
[Cb cap Ci sp]
+15.9 +13.4 85 +17 +17 1010.4 997.3
12 13.09 З 2 н/о н/о +17.4 +13.2 76 +18 +18 1009.6 996.6
15 13.09 З 3 10 км слаб. ливневой дождь 9/9 600 м
[Cb cap]
+14.6 +12.6 88 +14 +14 1009.7 996.6 +17.4 0.5
18 13.09 З 1 20 км {ливн. осадки} 8/5 600 м
[Cb cap Ac trans]
+12.0 +11.1 94 +12 +12 1009.9 996.6
21 13.09 З 1 20 км 3/0
[Ci sp]
+10.1 +9.6 97 +9 +9 1009.7 996.3
00 14.09 штиль 0 20 км 10/8 600 м
[Cb cap Ci sp]
+8.3 +7.9 97 +7 +7 1008.8 995.4
03 14.09 ЮЗ 1 20 км 10/3 600 м
[Cb cap Ac trans Ci sp]
+10.8 +10.3 97 +10 +11 1008.9 995.6 +8.3 1
06 14.09 З 2 н/о н/о +15.7 +11.9 78 +16 +16 1008.9 995.6
09 14.09 З 3 20 км 9/4 600 м
[Cb cap Ac trans]
+18.3 +11.2 63 +19 +20 1008.3 995.3
12 14.09 ЮЗ 2 н/о н/о +17.8 +12.6 72 +18 +18 1008.0 995.0
15 14.09 Ю 1 20 км 10/8 600 м
[Cb cap Ci sp]
+14.3 +12.3 88 +15 +15 1008.3 995.2 +19.4
18 14.09 Ю 1 20 км 10/6 600 м
[Cb cap Ac trans Ci sp]
+12.2 +11.5 95 +12 +12 1007.3 994.1
21 14.09 ЮЗ 1 20 км 9/9 600 м
[Cb cap]
+11.5 +10.9 96 +11 +11 1006.7 993.5
00 15.09 Ю 2 20 км {ливн. осадки} 8/3 600 м
[Cb cap Ac trans Ci sp]
+11.5 +10.6 94 +10 +10 1005.4 992.1
03 15.09 Ю 2 20 км 9/6 600 м
[Cb cap Ac trans]
+11.5 +10.1 91 +10 +10 1004.3 991.1 +10.6 0.4
06 15.09 Ю 2 н/о н/о +14.6 +11.3 81 +14 +14 1003.8 990.7
09 15.09 ЮЗ 2 20 км 10/3 600 м
[Sc Ac trans Ci sp]
+17.8 +11.6 67 +18 +20 1003.3 990.4
12 15.09 Ю 1 н/о н/о +17.6 +11.6 68 +19 +19 1002.6 989.6
15 15.09 Ю 2 20 км 10/8 600 м
[Cb cap Ac und]
+14.8 +11.9 83 +14 +14 1001.9 988.9 +17.9
18 15.09 ЮЗ 2 20 км {гроза, ливн. осадки} 9/6 600 м
[Cb cap Ac trans]
+12.2 +11.5 95 +11 +11 1001.3 988.2
21 15.09 ЮЗ 2 20 км {ливн. осадки} 10/4 600 м
[Cb cap Ac trans Ci sp]
+11.0 +10.1 94 +10 +10 1001.0 987.8
00 16.09 ЮЗ 1 20 км {ливн. осадки} 4/0
[Ac trans Ci sp]
+8.3 +7.6 95 +7 +7 1001.6 988.2
03 16.09 Ю 1 20 км 9/5 600 м
[Sc Ci fib]
+7.9 +7.3 96 +7 +7 1001.7 988.4 +5.2 4
06 16.09 ЮЗ 2 н/о н/о +10.9 +7.3 78 +10 +10 1001.3 988.1

 

Местоположение метеостанции Вонъеган (Ханты-Мансийский АО, Россия): широта 61.95 долгота 64.90 высота над уровнем моря 111 м.

В архиве по умолчанию представлена погода в Вонъегане за последнюю неделю. Архивные данные за месяц целиком и за предыдущие месяцы, начиная с января 2011 года, Вы можете получить, выбрав интересующий диапазон дат из раскрывающегося списка и нажав кнопку "Ввод!".


*Определитесь, кто Вы:
робот инопланетянин человек

Внимание! Время в таблицах - всемирное. Для получения местного времени необходимо прибавить поправку, которая равна 5 ч.

Смотрите также архив погоды в соседних городах и на ближайших метеорологических станциях:

Погода в Октябрьском (Ханты-Мансийский АО, Россия) (82 км)
Погода в Талинке (Ханты-Мансийский АО, Россия) (94 км)
Погода в Агирише (Ханты-Мансийский АО, Россия) (98 км)
Погода в Югорске (Ханты-Мансийский АО, Россия) (108 км)
Погода в Игриме (Ханты-Мансийский АО, Россия) (141 км)
Погода в Атымье (Свердловская область, Россия) (175 км)
Погода в Шаиме (Ханты-Мансийский АО, Россия) (185 км)
Погода в Няксимволе (Ханты-Мансийский АО, Россия) (216 км)
Погода в Березово (Ханты-Мансийский АО, Россия) (219 км)
Погода в Казым-Мысе (Ханты-Мансийский АО, Россия) (230 км)

Пояснения к столбцам:

Ветер - указаны скорость ветра в м/с - средняя за 10 мин, порывы в срок и между сроками (в фигурных скобках) и направление, откуда дует ветер: С - северный, СВ - северо-восточный, В - восточный, ЮВ - юго-восточный, Ю - южный, ЮЗ - юго-западный, З - западный, СЗ - северо-западный.
Видимость - горизонтальная дальность видимости в метрах или километрах. При видимости от 1 до 10 км при отсутствии осадков обычно наблюдается дымка, при ухудшении видимости до 1 км и менее - туман. В сухую погоду видимость может ухудшаться дымом, пылью или мглою.
Явления - указаны атмосферные явления, наблюдавшиеся в срок или в последний час перед сроком; фигурными скобками обозначены явления, наблюдавшиеся между сроками (за 1-3 часа до срока); квадратными скобками обозначены град или гололедные отложения с указанием их диаметра в мм.
Облачность - указаны через наклонную черту общая и нижняя облачность в баллах и высота нижней границы облаков в метрах; квадратными скобками обозначены формы облаков: Ci - перистые, Cs - перисто-слоистые, Cc - перисто-кучевые, Ac - высококучевые, As - высокослоистые, Sc - слоисто-кучевые, Ns - слоисто-дождевые, Cu - кучевые, Cb - кучево-дождевые. Подробнее классификацию облаков см. в Атласе облаков (PDF).
T - Температура воздуха - температура, измеренная на высоте 2 м над землей.
Td - Температура точки росы - температура, при понижении до которой содержащийся в воздухе водяной пар достигнет насыщения.
f - Относительная влажность воздуха - влажноcть воздуха, измеренная на высоте 2 м над землей.
Te - Эффективная температура - температура, которую ощущает одетый по сезону человек в тени. Характеристика душности погоды. При расчете учитывается влияние влажности воздуха и скорости ветра на теплоощущения человека.
Tes - Эффективная температура на солнце - температура, которую ощущает человек, с поправкой на солнечный нагрев. Характеристика знойности погоды. Зависит от высоты солнца над горизонтом, облачности и скорости ветра. Ночью, в пасмурную погоду, а также при ветре 12 м/с и более поправка равна нулю.
P - Атмосферное давление - приведенное к уровню моря атмосферное давление.
Po - Атмосферное давление - измеренное на уровне метеостанции атмосферное давление.
Tmin - Минимальная температура - минимум температуры воздуха на высоте 2 м над землей.
Tmax - Максимальная температура - максимум температуры воздуха на высоте 2 м над землей.
R - Количество осадков - Количество выпавших осадков за период времени, мм. При наведении курсора мыши на число - период времени, за который выпало указанное количество осадков.
R24 - Количество осадков - Количество выпавших осадков за 24 часа, мм.
S - Снежный покров - Высота снежного покрова, см. При наведении курсора мыши на число - состояние снежного покрова и степень покрытия местности в баллах.